Location: Helensbirgh
(56.0153°N, 4.7348°W)
Time: 11:31:53
(UTC+00:00)

Envisat - Pass Details

Date: 17 October 2019
Orbit: 764 x 766 km, 98.1° (Epoch: 22 November)

Event Time Altitude Azimuth Distance (km) Brightness Sun altitude
Rises 20:23:38 0° 202° (SSW) 3,226 6.4 -18.8°
Reaches altitude 10° 20:26:20 10° 216° (SW) 2,304 5.8 -19.2°
Maximum altitude 20:30:26 24° 270° (W) 1,545 5.4 -19.7°
Drops below altitude 10° 20:34:34 10° 324° (NW) 2,318 6.2 -20.3°
Sets 20:37:19 0° 338° (NNW) 3,249 6.8 -20.7°
